Theta_e
323 322 322 322 323 321 321 319 313 307 308 313 316 320 321 322 322 322 323 320 319 320 320 319 319 319 319 320 321 322 324 328 333 335 336 336 336 336
321 320 320 320 321 322 320 319 320 315 308 316 317 320 322 323 322 319 322 323 321 321 319 318 317 317 317 318 319 320 321 323 325 329 332 333 333 333
318 317 316 320 318 320 320 322 319 318 311 316 321 321 321 321 322 322 324 324 323 322 321 318 316 315 315 316 317 318 318 319 321 323 326 329 331 332
323 323 321 323 324 324 321 322 322 322 317 317 323 323 324 325 325 324 321 320 321 322 321 318 317 316 315 315 315 316 315 315 315 317 320 323 326 329
323 321 320 322 322 324 324 321 320 322 321 317 316 321 322 319 319 321 320 321 318 321 319 317 317 317 317 316 315 315 313 312 312 313 315 318 321 324
318 316 314 313 313 314 315 316 316 314 315 313 311 312 313 316 314 311 311 314 314 315 316 315 316 316 316 315 315 316 313 311 309 309 310 310 312 315
317 316 315 313 311 311 310 312 314 311 310 308 308 308 310 310 310 311 309 310 314 315 314 316 314 315 316 314 315 317 314 310 308 308 308 307 307 309
315 316 314 313 311 310 310 308 311 309 308 307 307 307 310 310 308 308 307 306 304 313 311 309 312 311 315 314 312 310 308 307 307 306 306 305 305 305
314 313 310 308 311 313 309 309 309 308 309 310 308 308 308 310 309 308 308 307 306 309 310 306 312 311 315 312 310 309 308 307 307 307 307 306 304 305
312 313 311 308 306 307 312 312 312 312 312 310 312 311 312 312 311 311 310 309 309 310 311 305 310 309 312 312 311 310 309 307 307 306 306 305 304 303
310 309 309 308 300 301 311 309 309 310 311 311 308 305 303 303 305 308 307 305 304 305 310 307 308 309 313 311 317 310 308 308 307 306 306 306 306 305
312 308 302 303 299 299 308 306 306 308 309 310 312 312 311 311 307 309 309 305 303 302 310 305 306 307 304 311 317 315 312 307 306 306 305 305 303 314
310 309 308 300 299 299 298 308 305 303 307 309 310 309 311 311 310 310 311 308 305 301 307 306 305 306 306 305 309 314 313 311 315 312 305 306 304 304
309 309 308 300 301 301 301 299 298 301 309 308 307 308 307 308 309 312 313 309 309 306 308 308 304 304 303 303 304 313 313 313 315 317 316 307 306 304
310 303 301 299 298 301 300 300 300 309 308 307 306 308 309 312 312 312 312 310 311 309 310 309 309 308 304 303 304 308 308 311 314 315 316 313 311 312
307 308 307 303 300 306 306 308 308 308 308 308 307 307 311 309 309 311 309 306 308 306 309 312 311 311 303 304 305 305 308 307 314 315 313 310 311 311
302 310 307 307 307 307 307 308 307 308 307 308 307 308 307 308 307 310 311 306 307 306 304 306 309 308 305 304 301 302 303 306 312 312 310 308 308 309
306 306 305 305 305 305 305 305 306 306 308 308 308 307 306 307 306 309 310 307 304 304 306 306 306 306 303 302 301 297 301 304 305 307 307 304 303 306
306 305 303 304 305 305 305 305 305 307 310 308 308 308 307 307 308 307 306 306 304 306 307 309 308 304 299 295 300 299 298 302 302 301 303 303 302 304
304 304 303 304 305 305 305 304 305 307 307 308 307 308 305 304 305 307 306 305 305 302 303 304 304 304 301 296 296 299 296 299 301 302 302 304 303 304
304 303 305 305 305 305 305 305 306 307 307 307 308 307 307 304 304 306 307 298 300 302 299 299 301 291 303 303 297 297 300 299 300 301 302 305 304 303
303 304 305 306 305 305 305 305 305 305 306 306 306 307 308 307 307 306 309 306 304 302 302 304 303 301 300 297 296 297 298 301 301 300 299 298 300 298
305 305 306 306 306 305 304 304 304 305 305 306 306 307 308 307 309 309 309 307 306 303 303 301 301 302 300 299 295 297 297 298 300 301 303 299 299 299
Wind_Speed
9 7 4 3 4 4 5 3 3 2 3 1 1 3 3 2 1 1 3 4 3 2 2 4 4 5 6 8 8 9 9 10 11 17 18 18 21 22
5 6 5 3 3 2 3 4 3 3 2 3 4 4 5 5 7 5 7 11 14 14 13 9 5 7 8 9 9 8 8 9 9 10 13 16 15 14
4 5 4 2 3 2 1 1 2 2 2 1 4 3 5 6 6 9 8 6 7 16 10 8 8 8 9 9 9 9 9 9 9 9 10 10 11 14
5 4 4 3 2 3 2 2 2 2 3 5 2 4 6 5 6 3 5 7 6 9 12 14 11 11 11 10 9 9 10 10 10 10 10 9 11 11
13 11 12 13 11 8 6 7 6 4 3 6 5 2 2 5 4 3 5 5 6 10 11 15 13 8 12 11 11 11 10 10 10 10 10 10 11 12
12 12 12 12 12 12 10 10 9 9 5 5 4 3 4 2 4 6 7 6 6 9 10 13 1 11 14 12 12 14 14 8 7 8 8 10 11 11
9 9 10 10 12 12 9 9 11 10 9 9 8 8 7 7 9 8 6 6 6 5 7 3 6 8 6 11 16 9 7 2 4 7 8 11 11 11
9 9 11 11 5 5 7 8 8 9 10 8 8 10 9 10 10 9 9 9 10 9 11 9 9 8 3 9 4 7 7 4 4 5 10 12 14 14
11 11 11 10 15 13 5 4 4 5 6 8 9 9 10 10 10 10 10 10 11 8 8 8 10 8 8 4 10 9 6 3 1 3 9 12 13 14
10 11 11 11 13 14 11 9 9 6 8 8 8 8 7 8 9 9 11 7 9 8 7 9 10 7 5 5 9 8 4 1 3 6 7 8 9 10
9 10 11 11 9 13 11 12 11 10 7 5 8 9 11 8 10 7 7 10 10 10 9 9 9 9 7 9 4 8 8 7 5 4 4 4 4 6
11 10 11 8 7 10 10 11 9 9 11 11 6 7 5 7 4 7 8 8 8 7 8 8 11 10 7 5 5 2 3 8 7 7 2 2 4 5
8 8 9 5 4 9 7 8 8 9 12 8 5 8 8 8 8 8 9 7 8 6 10 7 6 9 7 9 7 3 5 2 7 6 5 2 3 4
7 8 6 6 7 7 10 8 9 11 6 7 8 8 9 7 9 8 9 7 7 9 9 7 5 6 7 9 10 6 6 4 5 1 3 3 3 4
7 4 8 10 13 10 13 12 8 7 6 7 9 9 7 10 8 7 6 8 8 7 5 7 8 6 3 5 6 7 7 6 1 2 2 2 3 2
8 4 7 10 13 8 6 6 5 6 7 7 9 7 10 10 8 7 7 8 7 6 9 7 6 2 2 3 5 8 7 6 7 2 2 3 2 2
10 5 5 7 8 7 6 4 6 6 8 6 6 10 9 10 10 8 6 7 8 7 7 6 7 7 6 7 5 7 8 9 6 3 2 2 4 3
6 4 5 7 8 8 7 7 8 7 8 7 8 8 9 10 10 9 7 7 8 8 8 5 5 1 1 4 11 7 5 5 5 5 4 2 1 2
4 6 5 6 7 6 7 7 8 8 10 8 8 9 10 9 9 9 9 9 9 9 9 9 9 7 4 3 3 15 5 4 4 3 2 2 1 0
6 5 5 6 6 6 7 7 7 7 7 7 6 6 6 10 9 10 8 9 7 6 8 6 6 6 5 3 3 2 12 6 4 4 2 2 1 2
5 4 4 5 5 5 6 7 7 6 7 7 7 8 7 6 9 10 7 6 8 6 6 6 5 5 4 1 2 3 3 9 9 8 8 4 2 2
4 5 4 5 5 7 7 7 7 6 6 8 9 8 5 6 8 9 7 8 8 5 4 3 7 5 4 4 4 4 3 3 2 8 10 10 6 5
3 4 4 5 7 6 6 6 6 8 8 9 8 8 9 8 7 8 9 6 6 5 6 5 4 2 4 3 3 3 4 4 5 6 5 4 2 0
Wind_Direction
68 71 57 47 73 78 54 7 110 106 38 45 219 179 231 226 94 288 244 169 237 203 248 288 303 311 317 317 323 331 325 320 278 243 236 237 233 229
62 70 43 19 39 29 75 81 75 123 142 201 219 190 205 205 196 202 222 212 217 207 201 202 246 292 296 292 294 298 304 306 300 291 248 238 235 228
73 85 75 39 42 17 350 34 68 33 46 219 224 190 199 218 225 223 225 227 240 210 202 209 225 252 269 282 287 286 288 294 300 294 282 259 237 221
136 90 93 68 44 26 353 353 1 347 293 284 261 191 232 228 238 292 291 290 306 180 201 221 222 229 239 252 270 274 271 273 282 285 278 266 260 245
44 40 28 25 28 14 21 16 16 4 7 345 21 66 1 31 329 275 333 324 314 303 230 248 242 232 247 235 241 246 255 250 251 266 279 275 264 246
62 50 46 39 29 7 42 8 6 336 356 320 320 299 288 324 335 299 291 285 291 293 282 269 352 236 246 243 246 239 242 252 261 254 268 278 280 266
81 81 59 57 61 51 25 22 7 1 360 346 345 343 9 351 338 350 341 298 314 278 274 332 319 296 283 250 255 275 184 190 314 308 287 266 263 266
39 57 87 37 77 93 86 59 48 31 23 351 352 357 356 344 345 338 328 322 321 311 318 317 298 293 274 284 105 130 146 164 234 289 288 277 268 262
50 37 43 39 12 8 162 174 155 110 65 333 356 348 332 340 331 317 317 317 305 310 312 299 308 329 299 146 187 172 157 140 290 282 291 276 267 254
37 52 53 42 18 355 331 16 17 23 7 7 355 348 340 334 330 319 314 335 299 316 334 303 299 279 282 304 179 160 143 187 304 310 319 294 256 246
86 62 47 44 5 347 0 14 3 14 19 225 262 273 281 270 275 309 324 326 313 310 312 309 312 317 311 289 167 172 183 205 211 268 333 1 274 243
137 117 85 47 7 356 353 6 357 4 333 327 352 356 13 23 152 351 336 335 330 319 337 335 321 313 306 329 23 148 243 222 228 231 222 345 6 276
31 33 56 25 335 309 307 7 339 316 309 303 356 15 355 11 350 355 337 316 298 284 305 335 293 303 287 298 302 232 227 197 244 204 214 250 351 352
11 34 24 285 274 267 293 329 312 312 0 353 17 359 4 354 346 342 336 328 308 272 285 289 283 301 315 306 301 326 298 275 231 325 206 128 254 291
356 355 281 276 275 268 236 275 325 349 9 352 351 10 2 340 334 338 347 331 325 321 299 287 286 283 291 286 298 310 320 306 259 197 267 21 19 346
289 249 283 301 273 283 324 65 13 332 1 351 352 356 349 357 352 357 346 329 334 325 355 354 331 343 312 318 317 313 318 310 320 325 53 48 352 36
321 352 7 345 347 19 25 35 10 353 5 354 358 345 356 349 352 348 348 337 5 0 2 343 355 51 42 24 0 346 321 317 335 15 8 37 40 38
304 33 12 347 343 11 0 12 7 337 358 4 352 355 349 352 346 346 356 6 1 348 357 355 336 25 167 87 61 348 325 351 7 15 29 20 30 340
272 36 19 342 337 4 351 10 5 351 331 354 358 352 2 349 344 354 346 19 359 353 359 2 356 2 38 360 37 32 341 357 343 5 347 347 16 61
33 14 6 316 332 356 357 14 358 333 348 355 349 354 11 349 351 351 346 8 9 357 349 1 344 0 15 11 354 2 17 4 335 331 300 227 304 71
6 346 324 309 347 352 17 10 342 342 340 343 4 7 344 355 350 344 349 19 27 8 6 358 352 345 332 147 3 356 353 36 34 13 348 334 63 46
320 337 339 305 360 22 7 356 350 339 354 360 347 353 348 347 337 338 350 17 30 15 356 18 29 16 25 18 10 358 345 328 116 81 55 33 355 11
21 304 313 17 27 21 354 13 344 356 360 353 351 341 335 339 12 345 322 8 29 33 12 45 30 4 6 12 11 354 349 342 344 355 12 46 38 243